Change the Weather History Date:

Friday, March 20, 2015

  Actual Average Record
Temperature  
Mean Temperature 32 °F -  
Max Temperature 35 °F 50 °F 81 °F (1945)
Min Temperature 28 °F 28 °F 8 °F (1949)
Degree Days  
Heating Degree Days 34    
Moisture  
Dew Point 23 °F    
Average Humidity 75    
Maximum Humidity 100    
Minimum Humidity 38    
Precipitation  
Precipitation 0.00 in - - ()
Sea Level Pressure  
Sea Level Pressure 30.27 in    
Wind  
Wind Speed 2 mph (ENE)    
Max Wind Speed 13 mph    
Max Gust Speed 17 mph    
Visibility 6 miles    
Events Snow    
Averages and records for this station are not official NWS values.
T = Trace of Precipitation, MM = Missing Value Source: NWS Daily Summary

Daily Weather History Graph

Daily Weather History Graph

Search for Another Location

Airport or City:

Trip Planner

Search our weather history database for the weather conditions in past years. The results will help you decide how hot, cold, wet, or windy it might be!

Date:

Astronomy

Mar. 20, 2015 Rise Set
Actual Time 7:01 AM EDT 7:09 PM EDT
Civil Twilight 6:34 AM EDT 7:36 PM EDT
Nautical Twilight 6:02 AM EDT 8:08 PM EDT
Astronomical Twilight 5:29 AM EDT 8:41 PM EDT
Moon 7:04 AM EDT (3/20) 7:46 PM EDT (3/20)
Length of Visible Light 13h 02m
Length of Day
12h 08m
New Moon, 0% of the Moon is Illuminated
Mar 20
New Moon
Mar 27
First Quarter
Apr 4
Full
Apr 11
Last Quarter
Apr 18
New

Hourly Weather History & Observations

Time (EDT) Temp. Windchill Dew Point Humidity Pressure Visibility Wind Dir Wind Speed Gust Speed Precip Events Conditions
12:15 AM 28.4 °F - 21.2 °F 74% 30.35 in 10.0 mi Calm Calm - N/A   Clear
12:35 AM 28.4 °F - 19.4 °F 69% 30.35 in 10.0 mi Calm Calm - N/A   Clear
12:55 AM 28.4 °F 24.6 °F 19.4 °F 69% 30.34 in 10.0 mi NE 3.5 mph - N/A   Clear
1:15 AM 28.4 °F - 19.4 °F 69% 30.34 in 10.0 mi Calm Calm - N/A   Clear
1:35 AM 28.4 °F - 21.2 °F 74% 30.34 in 10.0 mi Calm Calm - N/A   Clear
1:55 AM 28.4 °F - 21.2 °F 74% 30.34 in 10.0 mi Calm Calm - N/A   Clear
2:15 AM 28.4 °F - 19.4 °F 69% 30.34 in 10.0 mi Calm Calm - N/A   Clear
2:35 AM 28.4 °F - 19.4 °F 69% 30.34 in 10.0 mi Calm Calm - N/A   Clear
2:55 AM 28.4 °F - 21.2 °F 74% 30.34 in 10.0 mi Calm Calm - N/A   Clear
3:15 AM 28.4 °F - 23.0 °F 80% 30.33 in 10.0 mi Calm Calm - N/A   Clear
3:35 AM 28.4 °F - 21.2 °F 74% 30.33 in 10.0 mi Calm Calm - N/A   Clear
4:55 AM 30.2 °F - 19.4 °F 64% 30.32 in 10.0 mi Calm Calm - N/A   Clear
5:15 AM 30.2 °F - 17.6 °F 60% 30.31 in 10.0 mi Calm Calm - N/A   Clear
5:35 AM 32.0 °F - 15.8 °F 51% 30.32 in 10.0 mi Calm Calm - N/A   Clear
5:55 AM 32.0 °F - 17.6 °F 55% 30.32 in 10.0 mi Calm Calm - N/A   Mostly Cloudy
6:15 AM 32.0 °F - 14.0 °F 48% 30.33 in 10.0 mi Calm Calm - N/A   Overcast
6:35 AM 32.0 °F - 15.8 °F 51% 30.33 in 10.0 mi Calm Calm - N/A   Overcast
6:45 AM 30.2 °F 26.7 °F 17.6 °F 60% 30.33 in 10.0 mi NNE 3.5 mph - N/A   Overcast
7:45 AM 30.2 °F 26.7 °F 14.0 °F 51% 30.34 in 10.0 mi NE 3.5 mph - N/A   Overcast
8:45 AM 32.0 °F 27.5 °F 12.2 °F 44% 30.34 in 10.0 mi NNE 4.6 mph - N/A   Overcast
9:45 AM 33.8 °F 28.6 °F 10.4 °F 38% 30.32 in 10.0 mi NE 5.8 mph - N/A   Overcast
10:45 AM 35.6 °F 27.5 °F 19.4 °F 52% 30.32 in 10.0 mi SE 11.5 mph - N/A   Overcast
11:00 AM 33.8 °F 24.8 °F 23.0 °F 65% 30.32 in 4.0 mi SE 12.7 mph - N/A Snow Light Snow
11:45 AM 33.8 °F 30.8 °F 24.8 °F 70% 30.30 in 2.5 mi ESE 3.5 mph - N/A Snow Light Snow
12:22 PM 32.0 °F 25.6 °F 28.4 °F 87% 30.29 in - ESE 6.9 mph - N/A Snow Light Snow
12:56 PM 32.0 °F - 30.2 °F 93% 30.28 in 0.8 mi Calm Calm - N/A Snow Light Snow
1:45 PM 32.0 °F 25.6 °F 30.2 °F 93% 30.26 in 0.5 mi SE 6.9 mph - N/A Snow Light Snow
2:45 PM 32.0 °F 26.4 °F 30.2 °F 93% 30.23 in 0.5 mi NE 5.8 mph - N/A Snow Snow
3:45 PM 32.0 °F 25.6 °F 30.2 °F 93% 30.22 in 0.5 mi ENE 6.9 mph - N/A Snow Snow
4:45 PM 30.2 °F 22.6 °F 30.2 °F 100% 30.20 in 1.0 mi East 8.1 mph - N/A Snow Snow
5:45 PM 30.2 °F 23.4 °F 28.4 °F 93% 30.18 in 1.0 mi ENE 6.9 mph - N/A Snow Snow
6:45 PM 30.2 °F 23.4 °F 28.4 °F 93% 30.17 in 0.8 mi ENE 6.9 mph 11.5 mph N/A Snow Light Snow
7:45 PM 28.4 °F 18.5 °F 28.4 °F 100% 30.17 in 1.0 mi ENE 11.5 mph 17.3 mph N/A Snow Light Snow
8:45 PM 28.4 °F - 26.6 °F 93% 30.17 in 1.0 mi North - - N/A Snow Light Snow
8:46 PM 28.4 °F - 26.6 °F 93% 30.17 in 1.5 mi North - - N/A Snow Light Snow
9:45 PM 28.4 °F 23.3 °F 26.6 °F 93% 30.17 in 2.0 mi NE 4.6 mph - N/A   Overcast
10:15 PM 32.0 °F 27.5 °F 28.4 °F 87% 30.16 in 4.0 mi NNE 4.6 mph - N/A   Overcast
10:35 PM 32.0 °F 27.5 °F 28.4 °F 87% 30.15 in 5.0 mi NNE 4.6 mph - N/A   Overcast
10:55 PM 32.0 °F 27.5 °F 28.4 °F 87% 30.14 in 4.0 mi NNE 4.6 mph - N/A Snow Light Snow
11:15 PM 32.0 °F 26.4 °F 28.4 °F 87% 30.14 in 5.0 mi NNE 5.8 mph - N/A Snow Light Snow
11:35 PM 32.0 °F 26.4 °F 28.4 °F 87% 30.14 in 5.0 mi NNE 5.8 mph - N/A   Overcast
11:55 PM 32.0 °F 28.7 °F 28.4 °F 87% 30.13 in 7.0 mi NNE 3.5 mph - N/A Snow Light Snow